Weather in Treskovo

Russia / Republic of Buryatia     52°03′28″N   106°54′07″E
temp.,
°C
wind,
m/s
gust,
m/s
humid.,
%
clouds,
%
prec.,
mm/h
press.,
hPa
HPBL,
m
17 september, fri
fri1723:00+8s11825 0.0 101511
02:00+7wsw118696 0.0 101511
05:00+6sw1190100 0.0 101611
08:00+8wsw118134 0.0 101685
11:00+13nnw22595 0.0 1015769
14:00+15nw33515 0.0 10141135
17:00+12wnw2358100 0.0 1014432
20:00+7sse117699 0.0 101615
18 september, sat
sat1823:00+6ese1178100 0.0 101611
02:00+7e1172100 0.0 101614
05:00+5se117786 0.0 101510
08:00+8ese12640 0.0 101575
11:00+16ene12400 0.0 1013790
14:00+20ene12350 0.0 10111418
17:00+19s01390 0.0 1010759
20:00+11sse33671 0.0 101237
19 september, sun
sun1923:00+10se33676 0.0 101346
02:00+9se346983 0.0 101369
05:00+9se347364 0.0 101371
08:00+10se356949 0.0 1013146
11:00+18se244629 0.0 1011792
14:00+22s123724 0.0 10091487
17:00+18w125021 0.0 1009455
20:00+12sse227268 0.0 101017
20 september, mon
mon2023:00+10sse117617 0.0 101012
02:00+10se22765 0.0 100932
05:00+10se34804 0.0 100855
08:00+12se36725 0.0 1007175
11:00+18se58523 0.0 1004769
14:00+21sse47430 0.0 10011239
17:00+21s37451 0.0 10001273
20:00+14sse35705 0.0 100175
21 september, tue
tue2123:00+10w71392100 0.9 1007910
02:00+8wnw41092100 1.3 1009919
05:00+7nw4795100 3.6 1010732
08:00+6wnw3693100 3.8 1012600
11:00+7wnw3682100 0.0 1012706
14:00+8wnw3659100 0.0 1011992
17:00+9nw3747100 0.0 10111123
20:00+6w2572100 0.0 1012183